sat.trackr.live / text

‹ back to catalog

STARLINK-4448

NORAD 53504 · 2022-099AR

PAYLOAD ACTIVE UNKNOWN

§ Identity

Operator
Country
US
Launch date
2022-08-12
Launch site
AFWTR
Launch vehicle
Mass (kg)
RCS (m²)

Purposes: comms

External: N2YO · Heavens-Above · Gunter

§ Orbital elements

Epoch: 2026-09-19T03:58:05.096928Z

Period
93.69 min
Inclination
97.5087°
Eccentricity
0.0000321
Mean motion
15.36966348 rev/d
Perigee alt
454.9 km
Apogee alt
455.3 km
Semi-major
6,833.2 km
B*
-5.3760e-6
RAAN
29.7036°
Arg perigee
109.1425°
Mean anomaly
250.9854°
Rev number
22,568

§ Raw data

STARLINK-44481 53504U 22099AR  26262.16533677 -.00000277  00000+0 -53760-5 0  99982 53504  97.5087  29.7036 0000321 109.1425 250.9854 15.36966348225687

JSON: /api/v1/satellites/53504 · /tle

For live sub-satellite position, see the globe view (requires WebGL).

§ Visibility from observer

Set your observer location to see the next 7 days of passes ≥ 10°. The values pass through the URL so the page stays shareable.

No JS? Fill the form by hand. The geolocation button needs JavaScript.